#timestamp,LO_Frequency,Hit,StdDev 
1545339615.5,286046998.1,N
1545339635.4,286046998.5,N
1545339655.2,286046998.6,N
1545339675.0,286046998.7,N
1545339675.9,286046998.7,N
1545339695.8,286046999.4,N
1545339715.6,286046998.3,N
1545339735.5,286046998.3,N
1545339755.3,286047001.0,N
1545339775.1,286047001.2,N
1545339795.9,286047001.1,N
1545339815.7,286047001.1,N
1545339835.5,286047000.8,N
1545339855.4,286046999.0,N
1545339875.2,286046998.6,N
1545339895.1,286047001.2,N
1545339896.0,286047001.2,N
1545339915.8,286046999.5,N
1545339935.6,286046999.4,N
1545339955.5,286046998.4,N
1545339975.3,286047000.5,N
1545339995.1,286047000.2,N
1545340015.9,286047000.9,N
1545340035.7,286047000.5,N
1545340055.6,286047002.4,N
1545340075.4,286046999.7,N
1545340095.2,286046999.7,N
1545340115.1,286047001.7,N
1545340116.0,286047001.7,N
1545340135.8,286047002.6,N
1545340155.7,286047002.5,N
1545340175.5,286047001.2,N
1545340195.3,286047001.2,N
1545340215.2,286047000.6,N
1545340235.9,286047000.7,N
1545340255.7,286047000.6,N
1545340275.6,286047002.8,N
1545340295.4,286047002.6,N
1545340315.3,286047002.8,N
1545340335.1,286047000.4,N
1545340336.0,286047000.4,N
1545340355.8,286047000.6,N
1545340375.7,286047000.6,N
1545340395.5,286047000.4,N
1545340415.3,286047000.2,N
1545340435.2,286046999.9,N
1545340455.0,286047002.2,N
1545340455.9,286047002.2,N
1545340475.8,286047004.3,Y
1545340495.6,286047002.6,P
1545340515.4,286046999.7,N
1545340535.3,286046998.7,N
1545340555.1,286047001.1,N
1545340575.8,286047000.8,N
1545340595.7,286047000.7,N
1545340615.5,286047000.2,N
1545340635.4,286046999.8,N
1545340655.2,286047000.5,N
1545340675.0,286046998.4,N
1545340675.9,286046998.4,N
1545340695.8,286047000.6,N
1545340715.6,286047000.3,N
1545340735.5,286047000.1,N
1545340755.3,286047000.2,N
1545340775.1,286047002.5,N
1545340795.9,286047004.0,Y
1545340815.7,286047001.6,P
1545340835.6,286047002.5,P
1545340855.4,286047001.7,N
1545340875.2,286047002.2,N
1545340895.1,286047000.8,N
1545340896.0,286047000.8,N
1545340915.4,286046998.2,N
1545340935.3,286047000.3,N
1545340955.1,286047001.0,N
1545340975.9,286047001.1,N
1545340995.7,286046998.5,N
1545341015.5,286046998.5,N
1545341035.4,286047000.3,N
1545341055.2,286046998.3,N
1545341075.0,286046998.1,N
1545341075.9,286046998.1,N
1545341095.8,286046998.1,N
1545341115.6,286047000.7,N
1545341135.5,286046998.6,N
1545341155.3,286046998.2,N
1545341175.1,286047000.9,N
1545341195.9,286047001.0,N
1545341215.7,286047000.4,N
1545341235.5,286046998.5,N
1545341255.4,286047000.9,N
1545341275.2,286047001.0,N
1545341295.1,286046998.4,N
1545341296.0,286046998.4,N
1545341315.8,286047000.0,N
1545341335.6,286047000.1,N
1545341355.5,286047000.1,N
1545341375.3,286047002.6,N
1545341395.2,286047000.5,N
1545341415.9,286047000.0,N
1545341435.7,286046999.0,N
1545341455.6,286046999.4,N
1545341475.4,286046999.2,N
1545341495.2,286046999.0,N
1545341515.1,286046998.5,N
1545341516.0,286046998.5,N
1545341535.8,286047000.4,N
1545341555.7,286047000.5,N
1545341575.5,286047000.0,N
1545341595.3,286047000.7,N
1545341615.2,286046998.2,N
1545341635.0,286047000.7,N
1545341635.9,286047000.7,N
1545341655.7,286047001.1,N
1545341675.6,286046998.9,N
1545341695.4,286046996.5,Y
1545341715.3,286046999.6,P
1545341735.1,286046998.9,P
1545341736.0,286046998.9,N
1545341755.8,286046999.2,N
1545341775.7,286046998.1,Y
1545341795.5,286046999.3,P
1545341815.3,286046999.5,P
1545341835.2,286046998.9,P
1545341855.0,286046998.6,Y
1545341855.9,286046998.6,P
1545341875.8,286047000.4,N
1545341895.6,286047002.8,P
1545341915.4,286046999.7,N
1545341935.3,286047000.8,N
1545341955.1,286046998.5,N
1545341975.9,286046998.2,N
1545341995.7,286047000.8,N
1545342015.5,286046998.1,N
1545342035.4,286047000.7,N
1545342055.2,286047000.6,N
1545342075.0,286047002.6,N
1545342075.9,286047002.6,N
1545342095.8,286047000.0,N
1545342115.6,286047001.2,N
1545342135.5,286047000.3,N
1545342155.3,286046998.9,N
1545342175.1,286047000.9,N
1545342195.9,286047000.8,N
1545342215.7,286047000.8,N
1545342235.6,286047001.0,N
1545342255.4,286047000.9,N
1545342275.2,286046999.9,N
1545342295.1,286047000.7,N
1545342296.0,286047000.7,N
1545342315.8,286047000.5,N
1545342335.6,286047001.1,N
1545342355.5,286046998.5,N
1545342375.3,286046999.0,N
1545342395.2,286046998.9,N
1545342415.9,286046998.7,N
1545342435.7,286046998.1,N
1545342455.6,286047000.1,N
1545342475.4,286047002.6,N
1545342495.2,286047001.5,N
1545342515.1,286047004.4,Y
1545342516.0,286047004.4,P
1545342535.8,286047002.2,N
1545342555.7,286047002.1,N
1545342575.5,286047001.9,N
1545342595.3,286047001.5,N
1545342615.2,286047003.1,N
1545342635.0,286047005.5,Y
1545342635.9,286047005.5,P
1545342655.8,286047002.0,N
1545342675.6,286047001.8,N
1545342695.4,286047001.7,N
1545342715.3,286047002.6,N
1545342735.1,286047002.5,N
1545342755.9,286047000.1,N
1545342775.7,286046999.8,N
1545342795.5,286046999.9,N
1545342815.4,286047002.5,N
1545342835.2,286047002.2,N
1545342855.0,286047001.9,N
1545342855.9,286047001.9,N
1545342875.4,286047002.7,N
1545342895.2,286047002.6,N
1545342915.1,286047002.5,N
1545342916.0,286047002.5,N
1545342935.8,286047002.2,N
1545342955.7,286047002.5,N
1545342975.5,286047002.8,N
1545342995.3,286047001.9,N
1545343015.2,286047002.5,N
1545343035.0,286047002.2,N
1545343035.9,286047002.2,N
1545343055.8,286047000.2,N
1545343075.6,286047002.3,N
1545343095.4,286047001.9,N
1545343115.3,286047001.9,N
1545343135.1,286047000.1,N
1545343155.9,286047001.8,N
1545343175.7,286047002.6,N
1545343195.5,286047002.4,N
